Wind_Speed
41 45 44 41 40 39 38 37 37 36 35 34 34 34 35 35 35 35 33 32 31 32 32 31 29 30 29 27 19 24 19 17 16 14 17 16 15 18 20 21 25 27 23 23 22 18 16
40 45 45 41 42 40 39 38 37 35 35 36 36 36 36 35 36 36 35 33 32 32 32 31 30 31 31 31 25 25 21 17 15 14 16 18 20 18 18 22 25 23 27 24 23 22 23
48 48 41 37 39 42 39 36 40 38 36 36 36 37 35 35 37 37 36 35 31 33 34 33 33 33 35 28 29 28 24 21 19 16 16 19 22 20 20 20 26 29 27 27 26 24 26
46 41 40 45 47 37 41 34 38 34 30 33 32 33 36 39 39 41 40 36 35 33 36 36 37 37 41 28 30 29 27 24 22 19 19 20 22 25 25 24 16 23 32 33 30 22 27
38 42 45 34 29 30 27 34 33 30 35 39 39 32 38 41 35 35 35 40 42 41 40 38 41 40 42 34 32 28 23 21 23 21 17 21 23 26 28 27 27 27 28 31 34 32 29
45 43 48 44 48 40 34 35 39 32 32 37 35 30 35 32 30 35 37 36 36 40 44 45 46 42 35 31 27 23 25 20 17 20 18 20 27 29 28 30 35 35 31 33 32 28 31
47 50 41 38 41 34 40 42 40 39 36 39 32 29 28 30 32 37 35 30 33 37 37 36 42 44 34 31 37 34 27 23 23 18 21 23 27 31 25 30 36 33 27 28 29 24 30
40 39 34 31 31 32 34 34 32 33 37 38 45 34 35 34 31 36 35 38 38 37 41 39 33 44 42 41 48 43 41 33 31 27 27 30 37 29 26 30 31 31 34 37 36 27 28
38 37 36 34 34 34 33 33 34 33 35 35 36 34 34 34 33 36 38 35 36 36 38 43 34 41 42 43 45 40 36 38 42 41 36 36 36 21 23 31 33 34 36 36 38 29 29
35 34 34 35 34 34 34 34 33 31 35 35 32 32 33 30 29 29 29 30 30 30 19 40 38 39 36 31 47 38 32 33 39 41 36 33 37 35 36 34 25 35 33 35 33 28 23
34 33 33 33 33 33 33 33 32 32 33 32 30 28 27 27 22 21 21 17 14 12 3 12 15 18 21 20 19 9 12 27 35 41 33 35 28 25 30 37 32 39 26 27 26 30 29
33 32 31 31 30 30 29 29 29 30 30 29 27 26 23 26 17 17 13 11 11 7 8 8 11 14 21 23 18 12 16 21 28 38 37 39 35 26 22 19 20 19 29 16 19 25 19
29 29 27 26 25 24 24 24 24 24 24 24 24 17 25 22 17 18 15 16 10 8 7 4 4 15 16 21 17 20 19 26 33 29 42 40 48 44 37 33 26 17 22 5 7 8 13
26 25 24 22 21 20 19 19 20 20 20 22 25 21 28 25 24 21 18 21 11 11 21 6 8 7 12 17 22 21 26 24 33 30 12 25 16 27 29 43 43 34 31 15 7 5 8
23 22 20 19 17 17 16 16 17 17 18 19 26 28 21 19 23 18 20 25 19 23 12 19 23 17 18 18 16 5 16 31 30 36 23 10 28 31 26 26 29 41 33 42 30 16 4
21 20 18 17 16 15 14 14 13 14 15 18 25 36 30 27 21 18 29 35 30 30 14 11 9 7 7 13 17 18 16 12 20 34 30 30 26 33 26 19 33 33 34 30 22 10 17
21 19 18 17 15 14 13 13 12 12 12 13 16 25 36 35 26 25 37 37 37 32 25 19 20 13 15 19 15 11 10 23 21 18 20 34 35 53 18 28 36 32 40 36 29 38 17
21 19 18 16 15 14 14 13 13 13 12 12 12 15 18 27 27 34 39 33 33 35 32 24 21 25 24 22 17 13 12 17 10 17 26 22 16 32 43 50 31 13 29 41 31 29 25
22 20 19 18 17 16 16 15 14 13 12 11 12 13 13 17 28 34 38 35 37 37 33 21 21 29 29 30 24 16 17 17 19 24 19 21 10 13 30 41 42 34 44 34 35 34 37
21 21 19 19 18 17 16 16 16 16 16 15 15 13 15 17 20 21 24 33 38 41 36 25 30 26 25 33 35 36 32 30 27 27 26 23 25 24 4 11 20 12 24 37 39 35 33
22 22 21 19 18 18 17 17 18 18 18 18 18 18 18 13 18 18 19 22 24 28 31 30 29 23 26 28 27 34 37 37 38 34 31 26 20 14 12 11 20 16 18 22 21 34 38
21 20 20 19 18 17 17 17 18 18 20 20 20 20 20 20 19 18 19 24 22 21 22 23 20 25 30 30 39 39 22 17 25 29 26 27 23 22 28 22 17 25 25 21 16 12 22
19 18 18 18 18 17 17 17 17 19 20 21 21 22 21 21 22 23 26 25 24 22 25 25 21 23 30 40 34 30 31 35 34 33 27 26 16 15 11 15 13 17 11 14 16 17 14
18 17 17 18 18 18 18 18 19 19 20 21 19 23 24 28 27 27 27 27 27 26 30 29 24 25 28 25 30 35 32 34 35 38 32 21 17 17 8 9 4 14 12 11 17 23 14
16 16 17 17 18 18 17 16 16 17 20 21 22 24 26 30 29 31 30 31 30 30 32 34 31 29 28 26 23 28 32 40 41 41 37 25 20 18 7 11 17 24 5 7 16 19 10
19 17 16 16 17 18 19 19 20 20 20 25 26 26 27 31 38 31 31 33 33 33 32 33 32 30 33 34 26 28 16 17 6 11 20 28 26 25 11 4 5 2 4 1 8 10 7
23 20 18 18 19 21 21 21 21 21 21 25 26 26 28 34 38 35 36 33 29 30 33 34 29 22 21 34 34 29 22 18 13 16 19 23 28 35 24 13 12 16 11 11 9 4 6
19 20 20 20 21 22 23 23 24 24 24 26 28 28 32 38 40 40 37 37 34 33 35 32 29 27 29 29 31 20 13 22 18 18 20 20 17 16 22 12 12 7 10 9 7 9 15
22 24 24 24 24 26 28 29 28 27 28 30 35 32 33 37 47 44 44 43 44 39 37 34 35 30 17 11 29 24 17 17 24 17 18 18 18 14 14 15 9 8 8 12 19 25 22
Wind_Direction
245 250 244 243 244 244 244 244 245 246 248 250 252 253 255 257 258 259 259 261 264 267 267 268 270 272 271 269 269 275 278 285 286 272 266 268 264 246 236 233 228 229 225 223 212 217 225
259 252 244 236 240 244 244 244 245 247 248 248 249 252 253 257 260 262 261 261 263 265 266 268 267 269 269 270 274 270 272 268 281 273 265 260 254 254 247 239 229 223 228 225 224 227 241
254 247 237 240 248 242 244 249 247 246 247 250 253 255 256 259 260 262 263 260 260 263 266 267 268 269 267 272 271 273 277 269 263 268 268 260 252 250 250 248 240 226 227 228 229 234 242
246 246 252 248 247 246 244 255 251 237 242 250 250 249 253 255 263 264 262 265 266 266 265 267 269 270 271 273 268 275 274 270 263 265 264 256 254 249 248 247 246 241 240 236 231 228 238
220 231 242 247 236 235 242 246 251 257 268 285 285 282 263 265 260 267 268 267 263 268 269 270 271 271 276 276 270 272 272 264 258 254 259 252 248 245 245 247 251 246 246 246 247 240 240
236 231 229 238 251 245 241 250 237 258 260 265 263 250 257 257 264 264 265 269 270 270 264 274 274 273 266 264 264 265 275 269 259 254 257 255 242 240 244 240 237 241 242 247 248 249 254
253 258 255 241 234 243 251 254 256 253 250 242 240 246 247 251 258 263 264 250 254 264 269 276 275 263 264 268 264 265 264 266 270 253 252 252 250 244 259 258 252 250 253 257 259 256 256
241 246 247 249 249 250 250 252 251 255 258 248 246 246 246 236 251 252 257 268 272 268 275 276 278 271 265 269 269 264 260 266 266 262 257 255 258 267 265 258 254 250 253 255 260 251 257
239 238 239 239 239 239 237 239 240 240 250 251 253 256 251 258 263 260 260 260 266 269 269 272 272 265 270 268 273 273 271 273 267 259 259 256 256 266 262 254 251 248 246 251 254 262 255
240 241 240 240 236 236 236 234 232 231 233 243 242 241 248 247 246 251 255 260 264 267 267 270 271 267 262 260 260 272 257 256 252 253 256 263 258 257 255 257 252 256 251 253 256 257 260
239 239 239 239 238 235 232 231 230 227 229 235 238 241 239 238 242 244 247 249 243 244 283 269 242 236 238 226 246 237 219 240 242 248 240 247 261 263 254 257 260 258 269 261 256 255 264
231 232 231 231 230 230 228 226 226 226 227 229 231 231 233 237 237 239 226 194 196 179 249 240 234 226 218 206 215 229 224 214 237 236 244 252 253 247 254 261 249 278 254 268 253 245 248
217 216 215 216 216 218 220 222 222 224 223 221 219 222 222 236 230 220 192 185 172 207 239 250 258 229 226 234 231 249 232 218 217 213 236 247 252 251 247 253 249 250 232 255 234 208 240
198 197 197 199 202 205 210 214 219 224 220 213 204 200 211 225 224 211 194 191 206 236 229 175 167 197 242 240 254 258 235 235 226 228 259 224 255 251 254 241 246 236 225 215 205 198 243
187 186 186 187 190 194 200 205 210 216 217 213 199 193 193 215 216 193 193 202 219 235 247 236 246 278 268 254 242 274 242 243 242 228 236 254 256 259 244 268 245 239 227 237 252 268 290
187 186 185 185 186 189 193 197 201 206 209 208 206 204 201 203 210 216 226 220 233 232 227 236 244 251 257 251 243 253 255 268 262 256 253 251 275 266 273 255 251 246 249 231 219 234 247
193 192 191 192 194 194 196 196 196 199 199 201 202 209 220 229 220 217 213 215 233 230 232 249 252 241 244 259 259 260 231 252 261 268 248 252 256 263 268 248 251 241 234 233 240 222 231
198 199 201 202 204 206 205 205 206 204 201 202 205 216 220 221 221 232 224 232 236 240 242 255 246 241 241 255 277 279 287 257 253 275 266 271 258 260 260 256 244 250 239 234 232 234 236
205 205 204 207 210 211 213 215 216 216 212 208 210 219 220 218 219 228 230 237 240 243 249 251 255 248 247 258 269 276 271 271 276 277 272 275 264 262 276 267 257 256 248 249 255 253 242
210 212 212 210 212 216 218 221 224 224 224 222 221 220 223 223 242 244 244 247 248 250 251 258 255 262 258 256 256 257 260 266 270 281 287 285 284 254 292 308 285 287 245 251 259 254 254
214 214 216 217 219 220 222 222 227 229 231 230 230 230 231 234 243 247 241 245 248 252 254 254 251 246 252 253 259 254 259 264 273 277 280 285 286 264 243 279 317 330 290 281 262 254 239
218 219 220 222 223 224 228 230 232 234 237 238 240 238 241 246 245 244 238 253 261 258 260 253 246 251 255 257 252 259 259 252 275 282 275 266 262 279 314 307 314 312 316 308 269 264 236
216 219 222 223 225 227 228 232 236 238 241 244 246 249 249 248 247 247 255 265 267 265 262 263 262 259 250 249 258 270 275 265 266 269 265 243 240 284 275 309 306 289 300 303 303 298 314
213 219 224 226 228 229 230 230 235 238 243 247 245 246 246 248 250 253 260 263 261 260 263 263 250 248 256 264 261 264 264 257 253 256 245 248 261 264 255 260 237 294 278 285 285 289 299
219 224 226 227 229 231 231 233 235 239 246 248 247 249 253 257 259 257 258 262 263 261 259 265 258 254 266 271 266 265 258 256 249 242 234 244 257 240 241 229 274 288 252 243 253 286 260
223 225 228 233 236 237 235 237 241 244 251 254 253 252 251 257 258 264 264 262 263 262 262 264 269 270 259 260 258 258 228 205 199 232 237 232 232 229 232 243 243 175 125 343 271 285 156
228 225 231 236 237 240 243 246 251 253 257 262 262 255 249 257 262 262 264 266 264 264 267 270 274 264 254 248 245 257 240 224 208 198 189 196 218 226 236 243 264 252 264 253 239 239 259
232 230 231 241 243 245 248 252 254 256 261 265 268 260 253 256 264 264 264 262 263 260 262 273 281 260 255 237 235 242 252 212 214 199 195 206 196 210 223 230 255 174 179 220 253 269 284
234 237 239 243 243 246 251 252 253 260 268 266 262 257 257 257 265 262 258 259 258 260 261 262 258 253 229 224 240 235 220 202 211 200 208 207 212 207 211 229 179 183 202 260 285 289 291
Height
3078 3080 3084 3087 3089 3092 3097 3099 3102 3104 3107 3110 3113 3113 3115 3116 3116 3119 3120 3122 3122 3123 3122 3123 3123 3124 3126 3127 3131 3128 3129 3129 3128 3129 3128 3128 3126 3126 3127 3129 3129 3127 3131 3131 3135 3136 3137
3069 3071 3074 3078 3082 3085 3089 3091 3094 3098 3101 3102 3104 3106 3109 3110 3112 3113 3115 3116 3117 3118 3117 3119 3118 3118 3119 3121 3124 3122 3125 3126 3125 3126 3124 3124 3123 3123 3124 3125 3126 3125 3126 3127 3130 3132 3133
3060 3062 3065 3069 3073 3076 3080 3083 3086 3090 3093 3096 3098 3100 3102 3103 3105 3107 3109 3110 3111 3112 3112 3113 3114 3114 3113 3119 3117 3117 3119 3121 3122 3121 3122 3120 3120 3122 3119 3122 3122 3123 3124 3122 3123 3127 3128
3049 3054 3057 3061 3064 3067 3070 3073 3077 3080 3082 3086 3090 3092 3094 3096 3098 3099 3102 3104 3105 3107 3108 3108 3109 3108 3103 3114 3112 3112 3113 3115 3116 3116 3117 3116 3116 3117 3116 3119 3119 3119 3119 3118 3120 3122 3124
3040 3042 3049 3053 3056 3059 3063 3065 3071 3072 3076 3080 3082 3084 3086 3089 3091 3093 3095 3097 3098 3100 3103 3103 3104 3105 3099 3105 3107 3106 3106 3108 3109 3110 3112 3112 3111 3110 3111 3116 3117 3114 3110 3111 3116 3118 3120
3031 3032 3035 3043 3048 3053 3055 3059 3063 3065 3068 3072 3075 3076 3079 3082 3084 3085 3086 3088 3092 3093 3095 3096 3094 3102 3098 3100 3101 3101 3102 3104 3105 3105 3107 3107 3104 3103 3106 3110 3104 3106 3106 3106 3108 3115 3115
3022 3025 3027 3030 3035 3041 3047 3051 3055 3059 3062 3067 3070 3070 3070 3074 3077 3079 3082 3082 3087 3087 3087 3090 3087 3087 3088 3092 3096 3096 3097 3099 3101 3101 3102 3100 3098 3095 3101 3102 3103 3103 3103 3103 3103 3108 3106
3016 3019 3022 3025 3030 3034 3039 3044 3047 3050 3054 3056 3060 3062 3065 3068 3072 3072 3075 3076 3078 3082 3077 3078 3079 3076 3083 3085 3082 3088 3091 3094 3096 3096 3097 3094 3087 3096 3098 3098 3098 3097 3096 3095 3097 3101 3100
3007 3011 3016 3019 3023 3028 3032 3035 3038 3042 3046 3049 3052 3055 3058 3061 3064 3065 3068 3069 3071 3071 3069 3064 3071 3069 3073 3077 3070 3077 3085 3085 3084 3086 3090 3086 3085 3090 3093 3092 3091 3090 3089 3090 3091 3096 3093
2998 3004 3008 3012 3017 3020 3024 3027 3031 3035 3037 3041 3045 3047 3051 3052 3058 3058 3060 3064 3063 3063 3067 3053 3059 3059 3063 3066 3060 3068 3073 3076 3074 3075 3083 3078 3078 3082 3087 3085 3088 3079 3084 3086 3087 3090 3086
2989 2995 3000 3004 3009 3012 3016 3020 3024 3028 3031 3034 3038 3041 3043 3046 3051 3053 3056 3057 3058 3061 3067 3055 3048 3049 3053 3058 3056 3059 3064 3063 3063 3067 3073 3067 3070 3076 3077 3079 3083 3073 3081 3082 3083 3082 3084
2981 2987 2992 2997 3001 3005 3009 3013 3017 3021 3025 3028 3032 3034 3038 3042 3046 3048 3051 3054 3053 3062 3056 3048 3046 3045 3050 3051 3052 3054 3056 3057 3061 3060 3062 3062 3069 3069 3071 3075 3074 3073 3078 3077 3076 3076 3072
2975 2980 2986 2990 2995 3000 3003 3008 3011 3015 3018 3022 3026 3030 3036 3038 3042 3044 3047 3050 3055 3053 3048 3047 3044 3043 3049 3050 3050 3049 3051 3051 3053 3054 3050 3055 3055 3061 3065 3067 3069 3070 3070 3073 3072 3069 3051
2971 2976 2981 2986 2991 2995 2999 3003 3006 3011 3013 3017 3022 3027 3030 3033 3036 3040 3044 3047 3046 3040 3041 3043 3044 3043 3044 3048 3046 3046 3047 3048 3051 3051 3048 3046 3048 3050 3051 3052 3057 3059 3060 3057 3056 3057 3049
2969 2973 2978 2983 2988 2992 2996 2999 3003 3006 3008 3011 3018 3022 3025 3028 3033 3035 3040 3041 3036 3037 3039 3040 3042 3042 3042 3044 3046 3043 3044 3045 3047 3048 3051 3048 3040 3042 3043 3048 3053 3049 3050 3049 3051 3048 3048
2967 2971 2976 2980 2984 2988 2993 2996 2999 3002 3004 3008 3012 3017 3021 3025 3030 3032 3033 3032 3032 3033 3036 3037 3040 3039 3040 3041 3042 3042 3041 3043 3044 3046 3048 3045 3040 3036 3039 3042 3040 3039 3046 3047 3045 3049 3047
2965 2969 2973 2978 2982 2986 2990 2993 2996 2998 3001 3005 3008 3011 3016 3019 3025 3027 3022 3024 3025 3030 3033 3036 3036 3039 3038 3039 3039 3037 3037 3039 3040 3041 3042 3041 3042 3025 3035 3030 3029 3034 3033 3036 3035 3034 3030
2962 2966 2970 2974 2979 2984 2987 2990 2993 2996 2999 3001 3002 3007 3011 3014 3019 3019 3019 3020 3024 3026 3030 3032 3031 3031 3035 3037 3036 3036 3034 3035 3035 3036 3038 3037 3034 3025 3019 3025 3027 3026 3026 3028 3024 3025 3022
2959 2963 2967 2972 2976 2980 2984 2987 2990 2992 2995 2997 3000 3004 3006 3009 3009 3012 3015 3016 3019 3020 3023 3026 3027 3027 3031 3034 3035 3031 3031 3032 3033 3035 3034 3031 3027 3022 3011 3015 3016 3019 3020 3021 3020 3018 3013
2956 2960 2964 2968 2972 2976 2980 2983 2986 2988 2991 2995 2999 3000 3002 3004 3005 3008 3011 3013 3013 3013 3016 3019 3021 3024 3026 3026 3027 3025 3026 3028 3030 3031 3029 3026 3023 3022 3017 3017 3015 3013 3011 3011 3010 3009 3010
2952 2956 2961 2965 2969 2972 2976 2978 2981 2984 2987 2991 2993 2995 2997 3000 3002 3005 3007 3007 3007 3007 3010 3014 3014 3016 3019 3020 3020 3019 3021 3022 3023 3023 3022 3023 3021 3018 3012 3011 3012 3008 3004 3003 2997 2998 2999
2949 2953 2957 2961 2965 2968 2970 2973 2975 2979 2981 2985 2988 2991 2993 2996 2998 3000 3000 3000 3002 3004 3006 3007 3008 3010 3012 3013 3012 3012 3015 3015 3015 3015 3015 3015 3015 3015 3011 3005 3003 3004 3001 2996 2992 2992 2990
2945 2949 2952 2956 2960 2963 2965 2969 2971 2974 2976 2979 2983 2985 2989 2990 2990 2993 2993 2996 2998 2999 2999 2999 3002 3003 3002 3001 3006 3007 3008 3008 3009 3009 3011 3011 3009 3009 3005 3005 3000 2997 2991 2994 2991 2988 2988
2941 2945 2948 2952 2955 2959 2962 2965 2967 2969 2972 2975 2978 2980 2982 2982 2983 2986 2988 2990 2991 2993 2992 2993 2996 2995 2995 2996 2997 2996 2998 2998 3000 3000 3004 3004 3003 3004 3001 3003 3000 2988 2988 2985 2985 2985 2983
2939 2942 2945 2949 2952 2955 2957 2960 2963 2965 2966 2969 2972 2974 2975 2973 2977 2977 2980 2982 2984 2985 2984 2983 2986 2989 2991 2990 2989 2989 2988 2988 2987 2990 2993 2995 2998 2999 2998 2996 2988 2986 2982 2976 2981 2982 2977
2936 2939 2942 2945 2948 2951 2953 2956 2958 2961 2963 2962 2965 2966 2967 2967 2964 2971 2972 2974 2975 2975 2977 2975 2978 2982 2984 2983 2984 2982 2976 2971 2977 2980 2983 2987 2991 2995 2993 2992 2986 2978 2975 2974 2981 2980 2976
2932 2935 2938 2941 2944 2946 2949 2951 2953 2955 2957 2957 2958 2960 2959 2957 2957 2961 2961 2965 2967 2968 2966 2966 2969 2972 2975 2973 2975 2974 2968 2969 2972 2973 2977 2979 2982 2982 2985 2986 2977 2972 2976 2978 2982 2983 2974
2927 2931 2934 2937 2939 2941 2943 2945 2947 2949 2950 2950 2951 2953 2953 2949 2948 2951 2954 2954 2957 2958 2958 2962 2964 2963 2966 2965 2967 2963 2962 2961 2965 2967 2965 2969 2973 2974 2979 2980 2975 2973 2977 2977 2975 2972 2971
2923 2926 2929 2931 2933 2935 2936 2938 2939 2941 2942 2943 2942 2944 2945 2942 2937 2939 2940 2944 2945 2949 2951 2952 2953 2957 2954 2955 2957 2957 2956 2955 2956 2959 2961 2965 2965 2966 2969 2969 2969 2969 2969 2970 2968 2966 2966